Dewpoint
51 53 54 55 56 57 58 58 58 58 59 60 60 61 61 63 65 66 67 67 68 68 69 69 70 70 70 71 71 71 71 71 71 71 71 70 71 71 71 71 71 71 72 72 73 73 74 74 74 74 74 74 74 73 72 71 70 69 68 67 67 66 66
48 50 52 53 54 55 57 58 58 58 58 59 60 61 61 62 64 65 66 67 68 68 68 69 70 70 70 71 71 71 71 71 71 71 71 71 71 71 71 71 71 71 71 72 73 73 74 74 74 74 74 74 73 73 72 71 70 69 68 67 66 66 66
46 48 50 52 53 54 56 57 58 58 58 58 58 59 61 62 64 65 66 66 67 68 68 69 69 70 70 71 71 71 71 71 71 71 71 70 70 70 71 71 71 71 71 72 73 73 74 74 74 74 74 73 73 73 72 71 70 69 68 67 67 66 65
45 46 48 51 52 53 55 56 57 57 57 57 57 58 60 62 63 64 65 66 66 67 68 68 69 69 70 70 70 71 71 71 71 71 71 71 71 71 71 71 71 71 71 71 72 73 73 74 74 74 74 73 73 73 72 71 70 69 68 68 67 67 66
45 45 46 48 50 51 53 54 56 57 56 56 57 59 60 61 62 63 64 65 65 66 67 68 68 69 70 70 70 70 71 71 71 71 71 71 71 71 70 70 70 70 71 71 73 73 73 73 73 73 73 73 73 72 72 71 70 69 69 68 67 67 66
45 46 46 46 48 49 51 53 54 55 55 56 56 58 59 59 60 61 63 65 65 66 67 68 68 69 70 70 70 70 71 71 71 71 71 71 71 71 70 70 70 70 70 71 72 73 73 73 73 73 73 73 72 72 71 71 70 69 69 67 67 67 66
45 47 47 47 47 48 49 51 52 54 55 56 56 57 58 58 59 60 62 64 65 65 66 66 67 68 69 70 70 71 71 71 71 71 71 71 71 71 71 71 71 70 71 71 72 72 73 73 73 73 73 72 72 72 71 71 70 69 68 68 67 67 66
45 46 48 48 47 46 47 50 52 53 55 56 56 56 57 58 59 60 61 63 64 64 65 66 67 68 69 70 70 70 70 71 71 71 71 71 71 71 71 71 71 71 71 71 71 72 72 72 72 73 73 72 72 72 71 71 70 69 68 68 67 67 66
45 47 47 48 48 47 47 49 50 52 55 56 56 57 57 58 59 60 61 62 64 64 65 65 66 67 69 69 70 70 70 71 71 71 71 71 70 70 70 71 71 71 71 70 70 72 72 72 72 72 72 72 72 72 71 71 70 69 68 67 67 67 66
45 46 48 49 50 49 50 49 51 53 55 56 57 58 58 58 60 60 61 62 63 64 65 65 66 67 68 69 69 70 70 71 71 70 70 70 70 70 70 70 71 71 71 70 70 71 72 72 72 72 72 72 72 71 71 71 70 70 68 67 67 67 67
45 48 49 49 51 51 52 50 51 54 54 56 57 57 58 59 59 60 61 61 62 63 64 65 66 67 67 68 68 69 70 70 70 70 70 70 70 70 70 70 70 71 71 71 70 71 71 71 72 72 71 71 71 71 71 70 70 70 69 68 67 67 66
47 48 49 49 50 52 52 53 53 54 55 56 56 57 59 59 59 60 61 62 62 63 65 65 66 67 67 68 68 69 70 70 70 70 70 70 70 70 70 70 71 71 71 71 71 71 71 71 71 71 71 71 71 71 71 71 70 70 69 68 67 67 66
45 47 48 48 50 51 54 55 55 55 55 54 55 57 58 58 59 59 61 62 62 63 65 66 67 67 67 68 68 69 69 70 70 70 70 71 71 71 71 71 71 70 71 71 71 70 70 70 71 71 71 71 71 71 71 71 70 70 69 69 68 67 66
52 47 47 50 52 53 53 54 55 55 56 55 55 57 57 58 59 60 61 61 62 63 64 65 67 67 68 68 69 69 69 70 70 70 70 71 71 71 71 71 71 71 71 71 71 71 70 70 70 71 71 71 71 71 71 70 70 70 69 69 68 67 67
40 43 46 48 51 53 53 53 55 56 56 56 56 56 57 58 59 61 62 62 63 62 64 66 67 67 67 68 69 69 70 70 70 70 71 71 71 71 71 71 72 72 72 72 71 71 71 71 71 71 71 71 71 71 70 70 70 69 69 69 68 68 67
40 41 43 46 49 51 53 53 54 56 56 57 57 57 57 58 60 60 61 62 62 63 64 66 67 68 68 68 69 69 70 70 71 71 71 71 71 71 71 71 72 72 72 72 71 72 72 71 71 71 70 70 70 70 70 70 70 67 63 64 68 68 67
38 40 42 46 49 50 52 53 54 55 57 58 58 58 58 59 60 61 60 61 62 64 64 65 67 68 68 68 69 69 70 70 71 71 71 71 71 71 71 71 72 72 72 72 72 72 72 72 71 70 70 70 70 70 70 70 69 64 62 62 63 67 67
41 41 41 42 47 51 52 52 53 54 55 56 58 59 59 60 60 61 61 62 63 63 64 66 67 67 68 68 69 69 70 70 71 71 71 71 71 71 71 71 71 72 72 72 72 72 72 71 71 71 71 71 70 70 70 70 65 62 61 61 61 63 67
45 43 43 47 50 52 51 50 51 54 54 56 57 58 59 60 60 62 62 63 64 65 65 66 67 67 68 68 69 70 70 70 71 71 71 71 71 71 72 71 71 71 71 71 72 72 72 72 71 71 71 71 70 70 70 70 65 62 60 61 60 60 63
50 50 50 50 49 49 52 53 53 54 55 58 59 58 60 61 61 62 63 63 65 65 66 67 67 68 68 69 69 70 70 70 71 71 71 71 72 72 72 72 71 71 72 72 72 72 72 71 71 71 71 71 71 70 70 70 64 61 60 60 59 60 62
54 55 55 55 53 51 53 55 56 56 57 57 57 59 61 62 62 63 64 65 65 65 66 67 67 68 68 69 69 70 70 71 71 71 71 71 72 72 72 72 72 72 72 71 71 71 71 71 71 71 71 71 71 70 70 70 63 59 58 58 58 59 60
63 63 62 61 58 56 56 55 56 55 56 59 60 61 61 61 62 63 64 65 65 65 66 67 67 68 69 69 70 70 71 71 71 71 71 71 72 72 72 72 72 72 72 72 71 72 71 72 71 71 71 71 71 70 70 70 61 59 58 57 57 58 64
63 64 65 65 65 62 60 59 58 58 62 61 61 61 62 62 64 64 65 65 65 66 66 67 67 67 68 69 69 70 71 71 71 71 71 72 72 72 72 72 72 72 72 72 71 71 71 71 71 71 71 71 71 71 70 70 63 58 57 56 56 59 65
64 65 65 66 66 67 66 64 62 62 60 61 62 64 65 64 64 65 65 65 66 66 66 66 66 67 68 69 69 70 71 71 71 71 71 71 71 71 71 72 72 72 72 72 71 71 71 71 71 71 71 71 71 70 70 70 64 57 56 55 56 61 66
64 64 65 65 66 66 66 66 64 64 63 62 62 64 65 65 65 65 65 66 66 66 65 66 66 67 67 68 69 70 71 71 72 72 71 71 71 71 71 72 72 72 72 72 72 71 72 71 71 71 71 71 70 67 69 70 65 56 56 55 55 61 67
63 64 64 65 66 67 67 67 67 66 65 64 64 65 65 65 65 65 65 66 65 65 65 66 66 67 67 68 69 70 71 71 72 72 72 71 72 72 72 72 72 72 72 72 72 71 71 71 71 71 71 71 70 70 70 70 70 61 55 54 55 58 67
64 64 64 65 65 67 66 66 67 67 67 68 68 68 66 66 65 66 66 66 66 66 66 66 68 68 69 69 69 69 70 71 71 71 71 72 72 72 72 72 72 72 72 71 71 71 71 71 71 70 71 71 71 71 71 70 70 62 54 54 54 56 61
64 64 64 65 66 66 66 66 66 67 67 67 68 69 68 67 66 66 67 67 66 67 67 68 68 68 68 68 68 69 70 70 71 72 71 72 72 72 72 72 72 72 72 71 71 71 71 71 71 71 70 71 71 71 71 69 66 65 55 54 53 54 57
63 63 63 64 64 65 66 65 65 65 66 67 68 68 69 69 67 67 68 67 68 69 70 70 69 69 68 68 68 69 69 70 71 71 72 72 72 72 72 72 72 72 72 72 71 71 71 71 71 71 71 71 71 71 72 72 69 61 60 54 53 53 55
63 63 64 64 65 65 66 65 65 66 66 67 67 68 68 68 69 69 68 68 70 70 70 71 70 70 69 68 68 68 69 69 70 71 71 72 72 72 72 72 72 72 72 72 71 71 71 71 71 71 70 70 70 71 71 71 70 61 59 58 53 52 54
63 64 64 64 64 65 66 65 65 66 66 67 67 67 67 68 68 68 68 68 69 70 71 70 70 70 69 69 68 68 69 69 70 70 71 71 72 72 71 72 72 72 72 72 71 71 71 71 71 70 70 70 70 70 69 69 69 67 62 58 54 53 53
64 64 64 64 64 65 64 65 65 65 66 66 66 67 67 67 67 67 67 68 69 70 71 71 70 70 70 69 69 69 69 69 69 70 70 71 71 71 71 71 71 71 72 71 71 71 71 71 70 70 70 70 70 69 68 67 67 65 63 59 56 55 54
64 64 64 64 64 64 64 64 64 64 65 65 66 66 66 66 67 67 67 68 69 70 70 71 71 70 70 70 70 70 69 69 68 69 69 70 71 71 71 72 71 71 71 71 71 71 71 70 70 70 69 69 69 68 67 65 65 63 61 60 59 59 57
63 64 64 65 65 65 64 64 63 63 64 65 65 66 66 66 67 67 67 68 68 68 69 69 69 70 71 71 71 70 70 69 69 69 69 69 70 70 71 71 71 71 71 71 71 71 71 70 70 69 69 69 69 67 65 64 64 62 60 59 59 59 60
63 63 64 64 65 65 65 65 64 64 64 64 65 66 66 66 67 67 67 67 68 68 68 68 67 68 69 70 71 72 71 71 70 70 69 69 70 71 71 71 71 71 71 71 72 72 71 71 71 70 70 69 68 66 64 64 63 62 58 59 57 59 61
62 63 64 65 65 65 65 65 65 64 64 63 65 65 66 66 66 67 67 67 67 67 67 67 67 68 68 67 68 69 70 71 72 71 71 71 70 71 71 67 59 66 72 72 67 65 64 64 70 70 70 69 67 66 65 64 64 55 52 51 51 52 55
62 63 64 65 65 65 65 65 65 65 64 64 65 65 66 66 66 66 66 67 67 66 66 66 66 66 65 65 66 66 66 66 67 68 70 72 72 72 71 71 65 53 52 59 65 62 59 57 60 61 63 67 67 63 58 57 52 50 50 48 49 50 50
61 62 63 64 64 65 65 65 65 65 65 65 65 65 65 66 66 66 66 66 66 66 66 65 65 64 64 64 65 64 64 64 63 63 63 64 66 70 71 70 68 65 54 52 56 59 55 55 54 54 56 58 61 61 60 52 50 48 47 48 48 48 48